Regional Weather Roundup
Issued by NWS

Home | Current Version | Previous Version | Text Only | Print | Product List | Glossary Off
Versions: 1 2 3 4 5 6 7 8 9 10 11 12 13 14 15 16 17 18 19 20 21 22 23 24 25 26 27

000
ASUS45 KBOU 242007
RWRCO

WEATHER ROUNDUP FOR COLORADO
NATIONAL WEATHER SERVICE DENVER/BOULDER CO
200 PM MDT SAT JUN 24 2017

NOTE: "FAIR" INDICATES FEW OR NO CLOUDS BELOW 12000 FEET WITH NO
SIGNIFICANT WEATHER AND/OR OBSTRUCTIONS TO VISIBILITY.

COZ001>005-013-030-031-242100-
...NORTHWEST COLORADO...

CITY           SKY/WX    TMP DP  RH WIND       PRES   REMARKS
CRAIG          FAIR      78  26  14 NW8       30.30F
HAYDEN         FAIR      73  27  17 CALM      30.32F
MEEKER         FAIR      78  25  14 MISG      30.30F
RABBIT EARS PA FAIR      55  28  35 NW6       30.57S
STEAMBOAT SPGS FAIR      72  34  24 W7        30.34S
WALDEN         FAIR      70  28  21 N8G18     30.41F
$$

COZ006>008-011-242100-
...WEST CENTRAL VALLEYS...

CITY           SKY/WX    TMP DP  RH WIND       PRES   REMARKS
GRAND JUNCTION FAIR      88  25  10 VRB7      30.12F
MONTROSE       FAIR      86  27  11 N12       30.20F
EAGLE          SUNNY     82  28  14 NW10      30.26F
RIFLE          FAIR      86  23  10 NW13G20   30.20F
DELTA          FAIR      95  13   5 W15G22    30.15S
NUCLA          FAIR      88  19   8 NE3       30.23F
$$

COZ017>023-064>068-242100-
...SOUTHWEST COLORADO...

CITY           SKY/WX    TMP DP  RH WIND       PRES   REMARKS
DURANGO        FAIR      88  26  10 SW14G26   30.21F
CORTEZ         FAIR      90  29  11 MISG      30.18F
PAGOSA SPRINGS FAIR      80  31  16 S12G20    30.31F
TELLURIDE      FAIR      76  12   9 W8G18     30.46F
WOLF CREEK PAS FAIR      59  37  44 SW13G25   30.67S
$$

COZ009-010-012-014-032>034-037-058>063-242100-
...CENTRAL COLORADO...

CITY           SKY/WX    TMP DP  RH WIND       PRES   REMARKS
ASPEN          FAIR      77  22  13 N14G23    30.32F
BUENA VISTA    FAIR      78  19  11 SW8       30.28F
COPPER MTN     FAIR      59  12  15 NW23G35   30.62F
BERTHOUD PASS  FAIR      48  36  61 W24G33    30.66R
COTTONWOOD PAS FAIR      77  25  14 S3        30.45F
GUNNISON       FAIR      80  15   8 W14       30.30F
KREMMLING      NOT AVBL
LEADVILLE      FAIR      67   5   8 W14G26    30.46F
MONARCH PASS   FAIR      61  19  20 W20G40    30.73S
SALIDA         FAIR      79  42  26 SE16G25   30.34F
SUNLIGHT       FAIR      63  21  20 W9G17     30.60S
WILKERSON PASS PTSUNNY   54  41  62 E12G22    30.60S
$$

COZ069>075-242100-
...SAN LUIS VALLEY/SANGRE DE CRISTO MOUNTAINS...

CITY           SKY/WX    TMP DP  RH WIND       PRES   REMARKS
ALAMOSA        FAIR      80  34  19 E7        30.28F
DEL NORTE      FAIR      76  35  23 SE8       30.31F
LA VETA PASS   CLOUDY    55  46  71 N13G18    30.62F
SAGUACHE       FAIR      82  12   7 W22G30    30.29F
$$

COZ035-036-038>040-242100-
...NORTHERN COLORADO FRONT RANGE...

CITY           SKY/WX    TMP DP  RH WIND       PRES   REMARKS
DENVER INTL AP PTSUNNY   73  46  38 NE13      30.29F
DMNS CITY PARK   N/A     71  47  41 NE9G17    30.30F
AURORA         PTSUNNY   70  49  46 N7        30.31F
FRONT RANGE AP PTSUNNY   73  46  38 N10G16    30.30F
ERIE MUNI ARPT PTSUNNY   70  46  42 NE3       30.31F
BOULDER MUN AP FAIR      70  45  40 NW3       30.31F
CENTENNIAL     FAIR      71  49  45 NW6       30.31F
BROOMFIELD     PTSUNNY   68  45  42 CALM      30.34F
FORT COLLINS   PTSUNNY   70  46  42 CALM      30.31F
LONGMONT       FAIR      74  45  35 CALM      30.32F
$$

COZ041-046-047-076>085-087-088-242100-
...PIKES PEAK/PALMER DIVIDE AND SOUTHERN FOOTHILLS...

CITY           SKY/WX    TMP DP  RH WIND       PRES   REMARKS
COLO. SPRINGS  PTSUNNY   66  46  48 SE13      30.35S
A. F. ACADEMY  CLOUDY    64  45  49 S9        30.35F
SCHRIEVER AFB  PTSUNNY   65  45  47 SE12G20   30.36S
CHEYENNE MTN   CLOUDY    59  45  60 S6        30.33S
ELLICOTT       CLOUDY   N/A N/A N/A SE9G18    30.34F
FALCON           N/A     64  42  44 SE10G17   30.39F
FORT CARSON    CLOUDY    68  47  46 E8        30.32S
LIMON          FAIR      70  46  42 SE18G26   30.32F
MONUMENT HILL  CLOUDY    63  43  48 S10       30.39S
CANON CITY     MOSUNNY   75  52  43 SE14G24   30.27F
WALSENBURG     MOCLDY    75  50  41 NE9       30.29F
TRINIDAD       FAIR      73  48  41 W6        30.28F
$$

COZ042>045-048>051-090-091-242100-
...NORTHEAST COLORADO...

CITY           SKY/WX    TMP DP  RH WIND       PRES   REMARKS
GREELEY ARPT   FAIR      76  47  35 CALM      30.30F
AKRON          PTSUNNY   70  46  42 SE8       30.31F
BURLINGTON     CLOUDY    71  48  43 S13       30.30F
WRAY           CLOUDY    77  45  31 SE8       30.29F
YUMA           CLOUDY    68  50  52 E8        30.30F
STERLING       PTSUNNY   73  45  35 SE9       30.28F
HOLYOKE        NOT AVBL
FORT MORGAN    FAIR      72  43  35 E6        30.30F
$$

COZ086-089-092>099-242100-
...SOUTHEAST COLORADO...

CITY           SKY/WX    TMP DP  RH WIND       PRES   REMARKS
PUEBLO         PTSUNNY   75  48  38 SE15      30.25F
LA JUNTA       CLOUDY    76  48  37 S16       30.25F
LAMAR          CLOUDY    76  45  33 S13G22    30.24F
SPRINGFIELD      N/A     72  46  39 S18G26    30.29F
$$




USA.gov is the U.S. government's official web portal to all federal, state and local government web resources and services.